<?xml version="1.0"?>
<gpx xmlns="http://www.topografix.com/GPX/1/1" xmlns:xsi="http://www.w3.org/2001/XMLSchema-instance" version="1.1" creator="GPX RubyGem 1.0.0 -- http://dougfales.github.io/gpx/" xsi:schemaLocation="http://www.topografix.com/GPX/1/1 http://www.topografix.com/GPX/1/1/gpx.xsd">
  <metadata>
    <name/>
    <time>2026-05-08T00:50:43+00:00</time>
    <bound minlat="90.0" minlon="180.0" maxlat="-90.0" maxlon="-180.0"/>
  </metadata>
  <trk>
    <name/>
    <trkseg>
      <trkpt lat="46.53318" lon="6.639892">
        <time>1970-01-01T00:00:00+00:00</time>
        <ele>643.0</ele>
      </trkpt>
      <trkpt lat="46.533157" lon="6.639923">
        <time>1970-01-01T00:00:00+00:00</time>
        <ele>643.0</ele>
      </trkpt>
      <trkpt lat="46.533234" lon="6.640064">
        <time>1970-01-01T00:00:00+00:00</time>
        <ele>645.0</ele>
      </trkpt>
      <trkpt lat="46.533092" lon="6.640216">
        <time>1970-01-01T00:00:00+00:00</time>
        <ele>645.0</ele>
      </trkpt>
      <trkpt lat="46.533105" lon="6.640242">
        <time>1970-01-01T00:00:00+00:00</time>
        <ele>645.0</ele>
      </trkpt>
      <trkpt lat="46.533143" lon="6.640257">
        <time>1970-01-01T00:00:00+00:00</time>
        <ele>646.0</ele>
      </trkpt>
      <trkpt lat="46.533197" lon="6.640339">
        <time>1970-01-01T00:00:00+00:00</time>
        <ele>648.0</ele>
      </trkpt>
      <trkpt lat="46.5333" lon="6.640399">
        <time>1970-01-01T00:00:00+00:00</time>
        <ele>650.0</ele>
      </trkpt>
      <trkpt lat="46.533338" lon="6.640401">
        <time>1970-01-01T00:00:00+00:00</time>
        <ele>651.0</ele>
      </trkpt>
      <trkpt lat="46.533393" lon="6.640362">
        <time>1970-01-01T00:00:00+00:00</time>
        <ele>651.0</ele>
      </trkpt>
      <trkpt lat="46.533559" lon="6.640414">
        <time>1970-01-01T00:00:00+00:00</time>
        <ele>653.0</ele>
      </trkpt>
      <trkpt lat="46.533653" lon="6.640413">
        <time>1970-01-01T00:00:00+00:00</time>
        <ele>653.0</ele>
      </trkpt>
      <trkpt lat="46.533724" lon="6.640368">
        <time>1970-01-01T00:00:00+00:00</time>
        <ele>653.0</ele>
      </trkpt>
      <trkpt lat="46.533793" lon="6.640392">
        <time>1970-01-01T00:00:00+00:00</time>
        <ele>655.0</ele>
      </trkpt>
      <trkpt lat="46.534016" lon="6.640048">
        <time>1970-01-01T00:00:00+00:00</time>
        <ele>662.0</ele>
      </trkpt>
      <trkpt lat="46.534214" lon="6.639831">
        <time>1970-01-01T00:00:00+00:00</time>
        <ele>667.0</ele>
      </trkpt>
      <trkpt lat="46.534319" lon="6.639689">
        <time>1970-01-01T00:00:00+00:00</time>
        <ele>669.0</ele>
      </trkpt>
      <trkpt lat="46.534408" lon="6.639501">
        <time>1970-01-01T00:00:00+00:00</time>
        <ele>671.0</ele>
      </trkpt>
      <trkpt lat="46.534474" lon="6.638931">
        <time>1970-01-01T00:00:00+00:00</time>
        <ele>669.0</ele>
      </trkpt>
      <trkpt lat="46.534534" lon="6.638803">
        <time>1970-01-01T00:00:00+00:00</time>
        <ele>670.0</ele>
      </trkpt>
      <trkpt lat="46.535028" lon="6.638749">
        <time>1970-01-01T00:00:00+00:00</time>
        <ele>680.0</ele>
      </trkpt>
      <trkpt lat="46.53502" lon="6.638619">
        <time>1970-01-01T00:00:00+00:00</time>
        <ele>679.0</ele>
      </trkpt>
      <trkpt lat="46.535037" lon="6.638478">
        <time>1970-01-01T00:00:00+00:00</time>
        <ele>678.0</ele>
      </trkpt>
      <trkpt lat="46.535069" lon="6.638429">
        <time>1970-01-01T00:00:00+00:00</time>
        <ele>676.0</ele>
      </trkpt>
      <trkpt lat="46.535119" lon="6.638381">
        <time>1970-01-01T00:00:00+00:00</time>
        <ele>674.0</ele>
      </trkpt>
      <trkpt lat="46.535194" lon="6.638355">
        <time>1970-01-01T00:00:00+00:00</time>
        <ele>673.0</ele>
      </trkpt>
      <trkpt lat="46.535239" lon="6.638365">
        <time>1970-01-01T00:00:00+00:00</time>
        <ele>673.0</ele>
      </trkpt>
      <trkpt lat="46.535259" lon="6.638418">
        <time>1970-01-01T00:00:00+00:00</time>
        <ele>673.0</ele>
      </trkpt>
      <trkpt lat="46.535259" lon="6.638418">
        <time>1970-01-01T00:00:00+00:00</time>
        <ele>673.0</ele>
      </trkpt>
      <trkpt lat="46.535239" lon="6.638365">
        <time>1970-01-01T00:00:00+00:00</time>
        <ele>673.0</ele>
      </trkpt>
      <trkpt lat="46.535194" lon="6.638355">
        <time>1970-01-01T00:00:00+00:00</time>
        <ele>673.0</ele>
      </trkpt>
      <trkpt lat="46.535119" lon="6.638381">
        <time>1970-01-01T00:00:00+00:00</time>
        <ele>674.0</ele>
      </trkpt>
      <trkpt lat="46.535069" lon="6.638429">
        <time>1970-01-01T00:00:00+00:00</time>
        <ele>676.0</ele>
      </trkpt>
      <trkpt lat="46.535037" lon="6.638478">
        <time>1970-01-01T00:00:00+00:00</time>
        <ele>678.0</ele>
      </trkpt>
      <trkpt lat="46.53502" lon="6.638619">
        <time>1970-01-01T00:00:00+00:00</time>
        <ele>679.0</ele>
      </trkpt>
      <trkpt lat="46.535028" lon="6.638749">
        <time>1970-01-01T00:00:00+00:00</time>
        <ele>680.0</ele>
      </trkpt>
      <trkpt lat="46.534534" lon="6.638803">
        <time>1970-01-01T00:00:00+00:00</time>
        <ele>670.0</ele>
      </trkpt>
      <trkpt lat="46.534474" lon="6.638931">
        <time>1970-01-01T00:00:00+00:00</time>
        <ele>669.0</ele>
      </trkpt>
      <trkpt lat="46.534408" lon="6.639501">
        <time>1970-01-01T00:00:00+00:00</time>
        <ele>671.0</ele>
      </trkpt>
      <trkpt lat="46.534319" lon="6.639689">
        <time>1970-01-01T00:00:00+00:00</time>
        <ele>669.0</ele>
      </trkpt>
      <trkpt lat="46.534214" lon="6.639831">
        <time>1970-01-01T00:00:00+00:00</time>
        <ele>667.0</ele>
      </trkpt>
      <trkpt lat="46.534016" lon="6.640048">
        <time>1970-01-01T00:00:00+00:00</time>
        <ele>662.0</ele>
      </trkpt>
      <trkpt lat="46.533793" lon="6.640392">
        <time>1970-01-01T00:00:00+00:00</time>
        <ele>655.0</ele>
      </trkpt>
      <trkpt lat="46.533724" lon="6.640368">
        <time>1970-01-01T00:00:00+00:00</time>
        <ele>653.0</ele>
      </trkpt>
      <trkpt lat="46.533653" lon="6.640413">
        <time>1970-01-01T00:00:00+00:00</time>
        <ele>653.0</ele>
      </trkpt>
      <trkpt lat="46.533559" lon="6.640414">
        <time>1970-01-01T00:00:00+00:00</time>
        <ele>653.0</ele>
      </trkpt>
      <trkpt lat="46.533393" lon="6.640362">
        <time>1970-01-01T00:00:00+00:00</time>
        <ele>651.0</ele>
      </trkpt>
      <trkpt lat="46.533338" lon="6.640401">
        <time>1970-01-01T00:00:00+00:00</time>
        <ele>651.0</ele>
      </trkpt>
      <trkpt lat="46.5333" lon="6.640399">
        <time>1970-01-01T00:00:00+00:00</time>
        <ele>650.0</ele>
      </trkpt>
      <trkpt lat="46.533197" lon="6.640339">
        <time>1970-01-01T00:00:00+00:00</time>
        <ele>648.0</ele>
      </trkpt>
      <trkpt lat="46.533143" lon="6.640257">
        <time>1970-01-01T00:00:00+00:00</time>
        <ele>646.0</ele>
      </trkpt>
      <trkpt lat="46.533105" lon="6.640242">
        <time>1970-01-01T00:00:00+00:00</time>
        <ele>645.0</ele>
      </trkpt>
      <trkpt lat="46.533092" lon="6.640216">
        <time>1970-01-01T00:00:00+00:00</time>
        <ele>645.0</ele>
      </trkpt>
      <trkpt lat="46.533234" lon="6.640064">
        <time>1970-01-01T00:00:00+00:00</time>
        <ele>645.0</ele>
      </trkpt>
      <trkpt lat="46.533157" lon="6.639923">
        <time>1970-01-01T00:00:00+00:00</time>
        <ele>643.0</ele>
      </trkpt>
      <trkpt lat="46.53318" lon="6.639892">
        <time>1970-01-01T00:00:00+00:00</time>
        <ele>643.0</ele>
      </trkpt>
    </trkseg>
  </trk>
</gpx>
